This is the latest recevied weather packets stored in our database for station/object SP6PGH-13. If no packets are shown the sender has not sent any weather packets the latest 10 day(s).
| Time | Temp. | Humidity | Pressure | Rain* | Wind** | Luminosity | Snow |
|---|---|---|---|---|---|---|---|
| 1777110490 | 14.44° C | 52% | 998.6 hPa | - | - | 669 W/m² | - |
| 1777109589 | 15° C | 56% | 998.6 hPa | - | - | 653 W/m² | - |
| 1777108688 | 13.89° C | 58% | 998.7 hPa | - | - | 637 W/m² | - |
| 1777107786 | 13.33° C | 61% | 998.7 hPa | - | - | 607 W/m² | - |
| 1777106885 | 13.89° C | 61% | 998.8 hPa | - | - | 575 W/m² | - |
| 1777105984 | 12.78° C | 64% | 998.7 hPa | - | - | 541 W/m² | - |
| 1777105083 | 12.78° C | 59% | 998.7 hPa | - | - | 508 W/m² | - |
| 1777104182 | 12.78° C | 61% | 998.8 hPa | - | - | 472 W/m² | - |
| 1777103281 | 12.22° C | 62% | 999 hPa | - | - | 443 W/m² | - |
| 1777102380 | 11.67° C | 64% | 999 hPa | - | - | 375 W/m² | - |
| 1777101478 | 11.11° C | 66% | 999.1 hPa | - | - | 392 W/m² | - |
| 1777100577 | 10.56° C | 69% | 999.2 hPa | - | - | 385 W/m² | - |
| 1777099676 | 10.56° C | 70% | 999.3 hPa | - | - | 178 W/m² | - |
| 1777098776 | 10° C | 72% | 999.3 hPa | - | - | 237 W/m² | - |
| 1777097874 | 9.44° C | 74% | 999.2 hPa | - | - | 162 W/m² | - |
| 1777096973 | 9.44° C | 75% | 999.2 hPa | - | - | 104 W/m² | - |
| 1777096072 | 8.89° C | 77% | 999.2 hPa | - | - | 109 W/m² | - |
| 1777095171 | 8.33° C | 80% | 999.2 hPa | - | - | 98 W/m² | - |
| 1777094270 | 7.78° C | 83% | 999.4 hPa | - | - | 58 W/m² | - |
| 1777093369 | 7.22° C | 87% | 999.5 hPa | - | - | 74 W/m² | - |
| 1777092468 | 6.11° C | 91% | 999.5 hPa | - | - | 48 W/m² | - |
| 1777091567 | 5.56° C | 93% | 999.5 hPa | - | - | 25 W/m² | - |
| 1777090666 | 5° C | 94% | 999.5 hPa | - | - | 16 W/m² | - |
| 1777089765 | 3.89° C | 93% | 999.6 hPa | - | - | 9 W/m² | - |
| 1777088864 | 3.33° C | 93% | 999.6 hPa | - | - | 5 W/m² | - |
* Rain since midnight (hover to see other rain measurements)
** Current wind speed in m/s (hover to see current wind gust speed)